2022-095C (53369 NORAD) Tracking and Keplerian Element Data

This shows tracking and keplerian element data for the satellite.

Feedback or suggestion? Click here.




ElementValue
Catalog53369
Name2022-095C
Epoch Orbit1583
Epoch Day325.08889537
Epoch Year2022
RAAN37.9148
Inclination97.3991
Eccentricity0.0077795
Argument of Perigee70.5482
Mean Anonmoly13.3601
Mean Motion15.26097182
Decay Rate5.916E-05
L11 53369U 22095C 22325.08889537 .00005916 00000+0 21292-3 0 9995
L22 53369 97.3991 37.9148 0077795 70.5482 13.3601 15.26097182 15831



Live tracking and technical data element details for 2022-095C (NORAD 53369). 2022-095C can be tracked NOW for your location showing map with azimuth and elevation plus other details from your city location.







IsCatalogInMostPopularTable: catalog: 53369, numindb: 4
Update: records affected: 1



GetName: 53369 2022-095C

Hit Count: updated at: Thu, 08 Dec 2022 19:08:20 GMT